"Timestamp","TZ","WindDir_Mean (deg)","WindSpd_Mean (km/h)","WindSpd_Min (km/h)","WindSpd_Max (km/h)","Temp_Mean (deg)","RH_Mean (%)","MSLP_Mean (hPa)","Rain_Acc (mm)","Rain_Intensity (mm/h)","Hail_Acc (hits/cm2)","Hail_Intensity (hits/cm2hr)","Solar_Mean (W/m2)"
2021/05/18 00:00:00.002,n,297,4.68,4.32,5.76,12.7,60.3,1025.92,0,0,0,0,0.023537
2021/05/18 00:01:00.000,n,243,2.88,2.88,3.24,12.7,60.4,1025.82,0,0,0,0,0.024376
2021/05/18 00:02:00.000,n,309,0.72,0.36,1.08,12.7,60.7,1025.82,0,0,0,0,0.023537
2021/05/18 00:03:00.000,n,237,2.52,1.8,2.88,12.7,60.5,1025.82,0,0,0,0,0.016556
2021/05/18 00:04:00.000,n,252,0.72,0.72,1.08,12.7,60.6,1025.82,0,0,0,0,0.018311
2021/05/18 00:05:00.004,n,263,5.4,4.68,6.84,12.6,59.6,1025.82,0,0,0,0,0.023537
2021/05/18 00:06:00.001,n,270,2.88,2.52,3.24,12.7,59.7,1025.82,0,0,0,0,0.02697
2021/05/18 00:07:00.001,n,234,2.52,2.16,2.52,12.7,60.1,1025.82,0,0,0,0,0.031319
2021/05/18 00:08:00.000,n,157,0.72,0.72,1.08,12.7,59.8,1025.82,0,0,0,0,0.031319
2021/05/18 00:09:00.011,n,254,4.68,3.24,6.12,12.7,58.8,1025.82,0,0,0,0,0.032234
2021/05/18 00:10:00.000,n,181,0.72,0.36,0.72,12.7,59.1,1025.92,0,0,0,0,0.032234
2021/05/18 00:11:00.000,n,236,1.44,0.36,1.8,12.7,58.7,1025.92,0,0,0,0,0.024376
2021/05/18 00:12:00.002,n,210,0.36,0.36,0.72,12.7,58.8,1025.82,0,0,0,0,0.029602
2021/05/18 00:13:00.001,n,157,1.44,1.08,1.8,12.7,58.7,1025.82,0,0,0,0,0.031319
2021/05/18 00:14:00.000,n,244,0.36,0.36,0.72,12.7,58.8,1025.82,0,0,0,0,0.027885
2021/05/18 00:15:00.010,n,336,2.52,2.16,3.24,12.7,59.5,1025.82,0,0,0,0,0.029602
2021/05/18 00:16:00.007,n,220,2.52,2.16,2.88,12.7,57.8,1025.82,0,0,0,0,0.025253
2021/05/18 00:17:00.004,n,258,2.88,2.52,3.24,12.7,57.7,1025.82,0,0,0,0,0.024376
2021/05/18 00:18:00.002,n,251,6.12,5.4,6.84,12.7,57,1025.82,0,0,0,0,0.026093
2021/05/18 00:19:00.000,n,265,1.8,0.72,2.16,12.7,57,1025.82,0,0,0,0,0.027885
2021/05/18 00:20:00.000,n,212,1.8,0.72,2.16,12.7,56.6,1025.82,0,0,0,0,0.029602
2021/05/18 00:21:00.000,n,250,3.6,2.16,4.68,12.8,56.3,1025.82,0,0,0,0,0.027885
2021/05/18 00:22:00.000,n,268,1.44,0.72,2.16,12.8,56.5,1025.82,0,0,0,0,0.027885
2021/05/18 00:23:00.005,n,260,7.56,6.48,8.28,12.8,56,1025.92,0,0,0,0,0.026093
2021/05/18 00:24:00.002,n,204,1.08,1.08,1.08,12.8,56.1,1025.92,0,0,0,0,0.027885
2021/05/18 00:25:00.000,n,305,1.08,0.36,1.8,12.8,56.2,1025.92,0,0,0,0,0.022621
2021/05/18 00:26:00.014,n,179,3.96,3.24,5.4,12.8,55.9,1025.92,0,0,0,0,0.02697
2021/05/18 00:27:00.011,n,277,2.52,1.8,2.88,12.8,56.2,1025.92,0,0,0,0,0.026093
2021/05/18 00:28:00.000,n,290,3.6,2.52,3.96,12.8,55.7,1025.92,0,0,0,0,0.024376
2021/05/18 00:29:00.000,n,307,1.44,1.08,1.8,12.8,56.1,1025.92,0,0,0,0,0.021744
2021/05/18 00:30:00.002,n,259,2.52,2.16,3.24,12.8,55.9,1025.82,0,0,0,0,0.022621
2021/05/18 00:31:00.001,n,155,2.16,1.44,2.88,12.8,55.9,1025.92,0,0,0,0,0.026093
2021/05/18 00:32:00.000,n,201,3.6,2.88,3.96,12.8,56.4,1025.92,0,0,0,0,0.026093
2021/05/18 00:33:00.000,n,185,1.8,1.44,2.52,12.9,56.4,1025.92,0,0,0,0,0.02697
2021/05/18 00:34:00.009,n,112,1.08,1.08,1.44,12.9,56.2,1025.92,0,0,0,0,0.020905
2021/05/18 00:35:00.007,n,120,0.36,0,0.36,12.9,56.4,1025.92,0,0,0,0,0.024376
2021/05/18 00:36:00.003,n,140,3.24,2.52,3.6,12.9,57.2,1025.92,0,0,0,0,0.025253
2021/05/18 00:37:00.000,n,165,6.12,5.04,6.84,12.9,57.2,1025.92,0,0,0,0,0.024376
2021/05/18 00:38:00.000,n,116,1.8,1.08,1.8,12.9,57.3,1025.92,0,0,0,0,0.024376
2021/05/18 00:39:00.000,n,140,2.88,2.16,3.6,12.9,57.7,1025.92,0,0,0,0,0.022621
2021/05/18 00:40:00.000,n,183,1.44,1.44,1.8,12.9,57.7,1025.92,0,0,0,0,0.022621
2021/05/18 00:41:00.005,n,182,1.08,1.08,1.8,12.9,58.3,1025.82,0,0,0,0,0.024376
2021/05/18 00:42:00.002,n,294,2.88,2.52,3.24,12.9,58.3,1025.82,0,0,0,0,0.025253
2021/05/18 00:43:00.000,n,178,1.44,1.08,1.44,12.9,58.7,1025.82,0,0,0,0,0.026093
2021/05/18 00:44:00.012,n,202,1.8,1.08,2.16,12.9,59.2,1025.82,0,0,0,0,0.030479
2021/05/18 00:45:00.005,n,257,2.52,2.16,2.88,12.8,58.7,1025.82,0,0,0,0,0.03746
2021/05/18 00:46:00.000,n,202,2.88,0.36,3.96,12.8,59.3,1025.82,0,0,0,0,0.036583
2021/05/18 00:47:00.000,n,161,0.36,0.36,0.72,12.8,59.3,1025.92,0,0,0,0,0.033989
2021/05/18 00:48:00.000,n,176,1.08,0.72,1.8,12.8,59.9,1025.92,0,0,0,0,0.031357
2021/05/18 00:49:00.000,n,120,1.08,0.72,1.44,12.8,60.4,1025.92,0,0,0,0,0.038338
2021/05/18 00:50:00.008,n,96,1.08,0.36,1.44,12.8,60.4,1025.92,0,0,0,0,0.034828
2021/05/18 00:51:00.005,n,150,2.52,1.8,3.24,12.7,60.6,1025.92,0,0,0,0,0.03746
2021/05/18 00:52:00.002,n,157,3.6,3.24,3.96,12.7,60.4,1025.92,0,0,0,0,0.034828
2021/05/18 00:53:00.000,n,129,2.16,1.08,2.88,12.7,60.6,1025.92,0,0,0,0,0.03746
2021/05/18 00:54:00.015,n,138,1.8,1.8,2.16,12.6,60.6,1025.92,0,0,0,0,0.036583
2021/05/18 00:55:00.000,n,152,3.96,1.8,4.32,12.6,60.9,1025.92,0,0,0,0,0.035706
2021/05/18 00:56:00.000,n,167,2.88,2.52,3.24,12.6,60.7,1025.92,0,0,0,0,0.033989
2021/05/18 00:57:00.000,n,186,2.52,1.08,3.24,12.5,61.1,1025.82,0,0,0,0,0.03746
2021/05/18 00:58:00.006,n,155,2.16,1.8,2.52,12.5,61.1,1025.82,0,0,0,0,0.02964
2021/05/18 00:59:00.003,n,173,3.6,2.88,4.68,12.4,61.1,1025.82,0,0,0,0,0.036583
2021/05/18 01:00:00.000,n,164,5.04,4.68,5.4,12.4,61.2,1025.82,0,0,0,0,0.031357
2021/05/18 01:01:00.000,n,159,5.04,4.68,5.76,12.3,61.3,1025.82,0,0,0,0,0.036583
2021/05/18 01:02:00.010,n,189,0.72,0.36,1.44,12.3,61.4,1025.82,0,0,0,0,0.033989
2021/05/18 01:03:00.009,n,152,1.8,1.08,3.6,12.3,61.8,1025.82,0,0,0,0,0.03746
2021/05/18 01:04:00.000,n,232,1.08,0.72,1.8,12.3,61.8,1025.82,0,0,0,0,0.036583
2021/05/18 01:05:00.000,n,182,4.68,3.6,5.4,12.2,61.9,1025.82,0,0,0,0,0.033989
2021/05/18 01:06:00.001,n,195,1.44,0.72,1.44,12.2,62.1,1025.82,0,0,0,0,0.034828
2021/05/18 01:07:00.000,n,201,2.16,0.72,3.96,12.2,62.1,1025.72,0,0,0,0,0.035706
2021/05/18 01:08:00.000,n,161,3.6,2.88,4.32,12.2,62.3,1025.72,0,0,0,0,0.030479
2021/05/18 01:09:00.008,n,177,5.04,4.68,5.4,12.2,62.3,1025.72,0,0,0,0,0.035706
2021/05/18 01:10:00.005,n,182,3.6,3.6,4.32,12.2,62.5,1025.72,0,0,0,0,0.032234
2021/05/18 01:11:00.003,n,201,2.88,1.8,3.6,12.2,62.7,1025.72,0,0,0,0,0.030479
2021/05/18 01:12:00.000,n,170,5.4,5.04,6.12,12.2,62.9,1025.72,0,0,0,0,0.034828
2021/05/18 01:13:00.000,n,217,5.04,4.32,5.4,12.2,62.9,1025.72,0,0,0,0,0.02964
2021/05/18 01:14:00.000,n,106,2.52,1.08,3.6,12.1,63,1025.72,0,0,0,0,0.035706
2021/05/18 01:15:00.000,n,170,4.32,3.96,4.68,12.1,63.2,1025.72,0,0,0,0,0.031357
2021/05/18 01:16:00.006,n,180,5.4,5.04,6.12,12.1,63.3,1025.72,0,0,0,0,0.027885
2021/05/18 01:17:00.004,n,170,5.4,4.68,6.12,12.1,63.4,1025.72,0,0,0,0,0.031357
2021/05/18 01:18:00.000,n,171,2.16,1.8,2.88,12.1,63.6,1025.72,0,0,0,0,0.033989
2021/05/18 01:19:00.000,n,178,2.88,2.16,3.6,12.1,63.5,1025.72,0,0,0,0,0.032234
2021/05/18 01:20:00.010,n,169,4.32,3.6,5.4,12.1,63.4,1025.72,0,0,0,0,0.027885
2021/05/18 01:21:00.007,n,183,1.8,1.8,2.16,12.1,63.2,1025.72,0,0,0,0,0.02964
2021/05/18 01:22:00.000,n,181,2.16,1.44,2.52,12,63.3,1025.72,0,0,0,0,0.027008
2021/05/18 01:23:00.001,n,182,5.4,3.24,6.48,12,62.9,1025.62,0,0,0,0,0.026131
2021/05/18 01:24:00.000,n,251,2.52,2.16,2.52,12,63.1,1025.62,0,0,0,0,0.027885
2021/05/18 01:25:00.000,n,170,2.88,2.52,3.24,12,63.2,1025.72,0,0,0,0,0.02964
2021/05/18 01:26:00.009,n,173,2.52,1.44,3.96,12,63.1,1025.62,0,0,0,0,0.028763
2021/05/18 01:27:00.006,n,137,2.88,2.16,3.6,12,63,1025.62,0,0,0,0,0.027008
2021/05/18 01:28:00.002,n,133,3.24,2.16,3.96,12,62.9,1025.62,0,0,0,0,0.026131
2021/05/18 01:29:00.000,n,196,3.6,3.24,3.96,12,63,1025.62,0,0,0,0,0.031357
2021/05/18 01:30:00.012,n,168,4.32,3.96,5.76,12,62.9,1025.62,0,0,0,0,0.02964
2021/05/18 01:31:00.000,n,251,2.16,1.44,3.24,12,62.8,1025.62,0,0,0,0,0.027008
2021/05/18 01:32:00.000,n,275,2.52,1.44,3.96,12,62.5,1025.62,0,0,0,0,0.024414
2021/05/18 01:33:00.000,n,247,1.8,1.44,1.8,12,62.6,1025.62,0,0,0,0,0.02964
2021/05/18 01:34:00.002,n,302,2.52,2.16,2.52,12,62.5,1025.62,0,0,0,0,0.031357
2021/05/18 01:35:00.001,n,215,3.6,2.52,3.96,12,62.3,1025.62,0,0,0,0,0.030479
2021/05/18 01:36:00.000,n,235,2.16,1.44,2.52,12,62.2,1025.62,0,0,0,0,0.026131
2021/05/18 01:37:00.010,n,156,1.8,0.36,2.88,12,62.4,1025.62,0,0,0,0,0.024414
2021/05/18 01:38:00.007,n,198,3.96,2.52,5.04,12,62.2,1025.62,0,0,0,0,0.027885
2021/05/18 01:39:00.004,n,304,3.6,3.24,4.32,12,62,1025.62,0,0,0,0,0.02964
2021/05/18 01:40:00.001,n,253,1.08,0.72,1.44,12,62.1,1025.62,0,0,0,0,0.028763
2021/05/18 01:41:00.000,n,178,5.04,4.68,6.12,12,62.3,1025.62,0,0,0,0,0.02964
2021/05/18 01:42:00.000,n,225,6.48,5.76,6.84,12,61.7,1025.62,0,0,0,0,0.027008
2021/05/18 01:43:00.000,n,116,1.44,0.72,2.52,11.9,62.2,1025.62,0,0,0,0,0.027008
2021/05/18 01:44:00.006,n,167,1.8,0.72,3.24,11.9,62.2,1025.62,0,0,0,0,0.024414
2021/05/18 01:45:00.004,n,142,2.52,1.08,3.24,11.9,62,1025.62,0,0,0,0,0.025253
2021/05/18 01:46:00.001,n,169,0.72,0.36,1.08,11.9,61.7,1025.62,0,0,0,0,0.028763
2021/05/18 01:47:00.014,n,201,3.24,1.8,4.32,11.9,61.9,1025.52,0,0,0,0,0.025253
2021/05/18 01:48:00.011,n,274,2.16,1.8,2.52,11.9,62,1025.52,0,0,0,0,0.026131
2021/05/18 01:49:00.000,n,349,2.88,2.52,3.96,11.9,63.1,1025.52,0,0,0,0,0.026131
2021/05/18 01:50:00.000,n,250,6.48,5.76,8.28,12,62.2,1025.52,0,0,0,0,0.025253
2021/05/18 01:51:00.003,n,205,3.24,2.88,3.6,12,62,1025.42,0,0,0,0,0.026131
2021/05/18 01:52:00.000,n,31,3.24,2.88,4.32,11.9,62.5,1025.42,0,0,0,0,0.024414
2021/05/18 01:53:00.000,n,282,2.88,2.52,3.6,12,62.1,1025.42,0,0,0,0,0.023499
2021/05/18 01:54:00.010,n,300,1.44,0.72,2.52,11.9,62.2,1025.42,0,0,0,0,0.024414
2021/05/18 01:55:00.007,n,290,2.52,2.16,2.88,11.9,62.1,1025.42,0,0,0,0,0.022659
2021/05/18 01:56:00.003,n,226,0.72,0.36,1.08,11.9,62.1,1025.42,0,0,0,0,0.027008
2021/05/18 01:57:00.001,n,210,1.44,1.08,2.16,11.9,62.2,1025.42,0,0,0,0,0.026131
2021/05/18 01:58:00.000,n,296,1.8,1.44,2.16,11.9,62.3,1025.32,0,0,0,0,0.020065
2021/05/18 01:59:00.000,n,265,1.44,0.72,1.8,11.8,62.3,1025.32,0,0,0,0,0.025253
2021/05/18 02:00:00.000,n,137,2.16,1.08,4.68,11.8,62.6,1025.32,0,0,0,0,0.029602
2021/05/18 02:01:00.004,n,234,1.8,1.44,2.16,11.8,62.7,1025.42,0,0,0,0,0.032234
2021/05/18 02:02:00.002,n,235,3.24,2.52,3.96,11.8,62.7,1025.42,0,0,0,0,0.033112
2021/05/18 02:03:00.000,n,157,1.8,1.08,2.88,11.8,63,1025.42,0,0,0,0,0.03746
2021/05/18 02:04:00.000,n,286,2.16,1.8,2.16,11.8,63,1025.42,0,0,0,0,0.034866
2021/05/18 02:05:00.010,n,253,1.8,0.72,2.16,11.8,63.2,1025.42,0,0,0,0,0.035744
2021/05/18 02:06:00.007,n,260,1.44,1.08,1.8,11.8,63.3,1025.42,0,0,0,0,0.029602
2021/05/18 02:07:00.000,n,113,5.4,5.04,5.76,11.8,63.1,1025.42,0,0,0,0,0.031395
2021/05/18 02:08:00.002,n,253,1.8,1.08,2.16,11.8,63.1,1025.42,0,0,0,0,0.025253
2021/05/18 02:09:00.000,n,247,1.8,1.44,2.16,11.8,63.1,1025.42,0,0,0,0,0.027885
2021/05/18 02:10:00.000,n,261,4.32,3.24,5.04,11.7,63.2,1025.42,0,0,0,0,0.027008
2021/05/18 02:11:00.000,n,147,3.24,2.88,3.6,11.7,63.4,1025.42,0,0,0,0,0.022659
2021/05/18 02:12:00.007,n,187,2.52,2.16,3.24,11.7,63.6,1025.42,0,0,0,0,0.026131
2021/05/18 02:13:00.006,n,195,2.88,1.44,4.32,11.7,63.8,1025.42,0,0,0,0,0.033112
2021/05/18 02:14:00.004,n,218,2.52,1.08,3.6,11.7,63.4,1025.42,0,0,0,0,0.027008
2021/05/18 02:15:00.002,n,273,2.88,1.8,3.96,11.7,63.6,1025.42,0,0,0,0,0.033112
2021/05/18 02:16:00.000,n,135,0.72,0.36,1.8,11.7,63.8,1025.42,0,0,0,0,0.030518
2021/05/18 02:17:00.000,n,219,3.96,3.24,4.68,11.7,63.9,1025.42,0,0,0,0,0.027885
2021/05/18 02:18:00.000,n,147,3.24,2.52,4.32,11.7,64,1025.42,0,0,0,0,0.034866
2021/05/18 02:19:00.006,n,174,3.6,2.88,3.6,11.7,64.199996,1025.42,0,0,0,0,0.028763
2021/05/18 02:20:00.003,n,173,5.4,5.04,6.12,11.7,64.300004,1025.42,0,0,0,0,0.024414
2021/05/18 02:21:00.001,n,191,6.48,5.04,7.2,11.7,64.300004,1025.42,0,0,0,0,0.033989
2021/05/18 02:22:00.000,n,342,1.08,0.72,1.44,11.6,64.5,1025.42,0,0,0,0,0.027885
2021/05/18 02:23:00.013,n,276,2.88,2.16,3.6,11.6,64.6,1025.42,0,0,0,0,0.027008
2021/05/18 02:24:00.012,n,214,0.72,0.36,1.08,11.6,64.800004,1025.42,0,0,0,0,0.028763
2021/05/18 02:25:00.000,n,221,1.08,0.72,1.44,11.6,64.699996,1025.42,0,0,0,0,0.027008
2021/05/18 02:26:00.000,n,227,3.24,2.52,5.04,11.6,64.800004,1025.42,0,0,0,0,0.030518
2021/05/18 02:27:00.002,n,163,2.16,1.08,3.6,11.6,64.9,1025.42,0,0,0,0,0.027008
2021/05/18 02:28:00.000,n,158,6.12,4.68,7.2,11.6,64.9,1025.42,0,0,0,0,0.024414
2021/05/18 02:29:00.000,n,156,4.32,3.24,5.4,11.6,64.9,1025.42,0,0,0,0,0.027008
2021/05/18 02:30:00.009,n,163,3.96,3.6,4.32,11.5,64.9,1025.42,0,0,0,0,0.026131
2021/05/18 02:31:00.007,n,181,5.4,4.32,6.12,11.5,64.9,1025.42,0,0,0,0,0.027885
2021/05/18 02:32:00.005,n,264,3.96,3.6,4.32,11.5,65.199996,1025.42,0,0,0,0,0.029602
2021/05/18 02:33:00.002,n,270,3.24,2.88,3.6,11.5,65.199996,1025.42,0,0,0,0,0.030518
2021/05/18 02:34:00.000,n,267,2.52,1.08,3.24,11.5,65.199996,1025.42,0,0,0,0,0.026131
2021/05/18 02:35:00.000,n,166,5.4,4.68,6.12,11.5,65.300004,1025.42,0,0,0,0,0.025253
2021/05/18 02:36:00.000,n,158,4.68,4.32,6.12,11.5,65.300004,1025.42,0,0,0,0,0.031395
2021/05/18 02:37:00.000,n,241,1.8,1.44,2.52,11.5,65.300004,1025.32,0,0,0,0,0.029602
2021/05/18 02:38:00.004,n,262,2.52,2.16,3.24,11.5,65.4,1025.32,0,0,0,0,0.023537
2021/05/18 02:39:00.001,n,266,3.24,1.8,4.32,11.5,65.300004,1025.32,0,0,0,0,0.024414
2021/05/18 02:40:00.000,n,169,1.08,0.72,4.32,11.4,65.4,1025.42,0,0,0,0,0.028763
2021/05/18 02:41:00.012,n,174,2.52,2.16,3.24,11.4,65.4,1025.42,0,0,0,0,0.026131
2021/05/18 02:42:00.010,n,127,3.96,1.8,5.04,11.4,65.4,1025.42,0,0,0,0,0.029602
2021/05/18 02:43:00.000,n,193,2.16,0.36,4.32,11.5,65.4,1025.42,0,0,0,0,0.027008
2021/05/18 02:44:00.003,n,143,3.24,2.88,3.6,11.5,65.300004,1025.42,0,0,0,0,0.024414
2021/05/18 02:45:00.000,n,125,2.16,1.08,3.24,11.4,65.4,1025.42,0,0,0,0,0.027008
2021/05/18 02:46:00.000,n,258,3.6,3.6,4.32,11.4,65.5,1025.32,0,0,0,0,0.021782
2021/05/18 02:47:00.000,n,184,2.16,1.44,2.52,11.4,65.6,1025.32,0,0,0,0,0.022659
2021/05/18 02:48:00.008,n,248,2.88,2.52,3.6,11.4,65.6,1025.32,0,0,0,0,0.023537
2021/05/18 02:49:00.005,n,229,1.8,1.08,2.16,11.4,65.300004,1025.32,0,0,0,0,0.035706
2021/05/18 02:50:00.005,n,266,5.04,4.32,5.76,11.4,65.5,1025.32,0,0,0,0,0.034866
2021/05/18 02:51:00.002,n,286,4.32,3.24,5.04,11.4,65.5,1025.32,0,0,0,0,0.0383
2021/05/18 02:52:00.000,n,171,2.16,0.36,4.68,11.4,65.300004,1025.32,0,0,0,0,0.031357
2021/05/18 02:53:00.000,n,182,3.6,2.88,4.68,11.4,65.4,1025.32,0,0,0,0,0.036583
2021/05/18 02:54:00.000,n,223,1.44,0.36,2.16,11.4,65.300004,1025.32,0,0,0,0,0.033112
2021/05/18 02:55:00.000,n,230,2.88,2.16,3.6,11.4,65.1,1025.32,0,0,0,0,0.033112
2021/05/18 02:56:00.005,n,117,2.16,1.8,2.88,11.4,65.300004,1025.32,0,0,0,0,0.033951
2021/05/18 02:57:00.002,n,153,3.96,3.96,4.32,11.4,65.5,1025.32,0,0,0,0,0.03746
2021/05/18 02:58:00.000,n,176,1.8,0.72,3.6,11.4,65.199996,1025.32,0,0,0,0,0.033951
2021/05/18 02:59:00.012,n,207,3.96,3.24,5.04,11.5,65,1025.32,0,0,0,0,0.033951
2021/05/18 03:00:00.009,n,155,3.6,3.24,3.96,11.5,64.9,1025.32,0,0,0,0,0.035706
2021/05/18 03:01:00.000,n,103,1.08,0.72,1.44,11.5,64.800004,1025.32,0,0,0,0,0.03746
2021/05/18 03:02:00.003,n,74,2.16,1.44,2.88,11.5,64.800004,1025.32,0,0,0,0,0.035706
2021/05/18 03:03:00.000,n,153,3.96,3.6,4.68,11.5,65.300004,1025.32,0,0,0,0,0.034866
2021/05/18 03:04:00.000,n,177,2.16,1.44,2.16,11.5,65.5,1025.32,0,0,0,0,0.036583
2021/05/18 03:05:00.000,n,241,3.6,3.24,3.96,11.5,65.4,1025.32,0,0,0,0,0.033951
2021/05/18 03:06:00.007,n,280,2.16,1.8,2.16,11.5,65,1025.32,0,0,0,0,0.035706
2021/05/18 03:07:00.004,n,220,2.52,1.44,3.24,11.5,65.300004,1025.42,0,0,0,0,0.031357
2021/05/18 03:08:00.001,n,164,4.68,2.16,8.28,11.5,65.4,1025.42,0,0,0,0,0.031357
2021/05/18 03:09:00.015,n,202,1.8,1.8,1.8,11.5,65.300004,1025.42,0,0,0,0,0.032234
2021/05/18 03:10:00.000,n,191,3.6,3.24,3.96,11.5,65.4,1025.42,0,0,0,0,0.033112
2021/05/18 03:11:00.000,n,220,1.44,1.08,1.44,11.5,65.4,1025.42,0,0,0,0,0.034866
2021/05/18 03:12:00.000,n,158,3.24,3.24,3.6,11.5,65.4,1025.42,0,0,0,0,0.035706
2021/05/18 03:13:00.004,n,203,2.88,1.08,3.96,11.5,65.300004,1025.42,0,0,0,0,0.031357
2021/05/18 03:14:00.002,n,182,4.32,3.96,4.68,11.5,65.4,1025.42,0,0,0,0,0.033112
2021/05/18 03:15:00.000,n,159,1.8,0.36,2.88,11.5,65.6,1025.42,0,0,0,0,0.035706
2021/05/18 03:16:00.012,n,157,8.64,7.92,9,11.5,65.300004,1025.42,0,0,0,0,0.030479
2021/05/18 03:17:00.009,n,165,3.96,2.52,4.68,11.5,65.199996,1025.42,0,0,0,0,0.031357
2021/05/18 03:18:00.006,n,188,1.8,1.44,2.52,11.5,65.4,1025.42,0,0,0,0,0.031357
2021/05/18 03:19:00.000,n,174,3.24,3.24,3.24,11.5,65.4,1025.42,0,0,0,0,0.035706
2021/05/18 03:20:00.000,n,156,1.8,1.44,2.16,11.5,65.5,1025.42,0,0,0,0,0.029602
2021/05/18 03:21:00.000,n,163,1.8,1.44,2.16,11.5,65.699996,1025.42,0,0,0,0,0.033951
2021/05/18 03:22:00.000,n,272,1.08,0.72,1.8,11.5,65.6,1025.42,0,0,0,0,0.033112
2021/05/18 03:23:00.008,n,265,4.32,2.52,5.4,11.5,65.6,1025.42,0,0,0,0,0.034866
2021/05/18 03:24:00.006,n,255,2.16,1.8,2.16,11.5,65.4,1025.42,0,0,0,0,0.033112
2021/05/18 03:25:00.003,n,243,2.16,1.44,2.52,11.5,65.5,1025.42,0,0,0,0,0.036583
2021/05/18 03:26:00.000,n,252,1.08,0.72,1.08,11.4,65.4,1025.42,0,0,0,0,0.031357
2021/05/18 03:27:00.014,n,46,2.16,1.44,2.88,11.4,65.800004,1025.42,0,0,0,0,0.029602
2021/05/18 03:28:00.000,n,222,1.8,1.44,1.8,11.5,65.6,1025.42,0,0,0,0,0.034866
2021/05/18 03:29:00.000,n,164,1.8,0.72,3.6,11.5,65.6,1025.42,0,0,0,0,0.033112
2021/05/18 03:30:00.000,n,41,2.16,0.72,4.32,11.5,65.800004,1025.42,0,0,0,0,0.035706
2021/05/18 03:31:00.004,n,267,1.8,0.72,2.52,11.6,65.6,1025.42,0,0,0,0,0.032234
2021/05/18 03:32:00.001,n,229,1.08,0.36,3.96,11.6,65.199996,1025.52,0,0,0,0,0.029602
2021/05/18 03:33:00.000,n,131,3.24,2.16,4.68,11.6,65.1,1025.52,0,0,0,0,0.033112
2021/05/18 03:34:00.000,n,135,1.8,0,2.88,11.6,65.1,1025.52,0,0,0,0,0.033112
2021/05/18 03:35:00.009,n,254,3.6,3.24,3.96,11.6,65.199996,1025.52,0,0,0,0,0.033951
2021/05/18 03:36:00.006,n,128,0.72,0.36,1.08,11.6,64.699996,1025.52,0,0,0,0,0.035706
2021/05/18 03:37:00.000,n,235,2.88,0.72,3.6,11.6,64.9,1025.52,0,0,0,0,0.033112
2021/05/18 03:38:00.001,n,210,2.16,1.44,2.88,11.6,65,1025.42,0,0,0,0,0.034866
2021/05/18 03:39:00.000,n,292,3.24,2.16,3.96,11.6,64.9,1025.42,0,0,0,0,0.033112
2021/05/18 03:40:00.000,n,243,2.52,1.8,2.88,11.6,65,1025.42,0,0,0,0,0.033951
2021/05/18 03:41:00.000,n,151,2.52,2.16,2.88,11.6,65.199996,1025.42,0,0,0,0,0.029602
2021/05/18 03:42:00.008,n,155,2.16,0.72,3.24,11.6,65.300004,1025.42,0,0,0,0,0.035706
2021/05/18 03:43:00.005,n,268,3.96,3.24,5.04,11.6,65.199996,1025.42,0,0,0,0,0.035706
2021/05/18 03:44:00.003,n,182,2.16,0.36,3.24,11.6,65.1,1025.42,0,0,0,0,0.032234
2021/05/18 03:45:00.001,n,313,2.52,2.16,2.52,11.6,65.1,1025.42,0,0,0,0,0.03746
2021/05/18 03:46:00.000,n,262,0.72,0,1.08,11.6,65.1,1025.42,0,0,0,0,0.035706
2021/05/18 03:47:00.000,n,127,2.52,1.08,3.6,11.6,65.1,1025.42,0,0,0,0,0.032234
2021/05/18 03:48:00.000,n,212,3.24,2.88,3.96,11.6,65.1,1025.42,0,0,0,0,0.036583
2021/05/18 03:49:00.006,n,224,1.44,0.72,1.8,11.7,64.9,1025.42,0,0,0,0,0.033112
2021/05/18 03:50:00.004,n,181,3.24,2.52,4.68,11.7,65.199996,1025.42,0,0,0,0,0.03746
2021/05/18 03:51:00.000,n,66,1.08,0.36,1.08,11.7,65,1025.42,0,0,0,0,0.039215
2021/05/18 03:52:00.000,n,313,1.08,0.72,1.44,11.7,64.9,1025.42,0,0,0,0,0.034866
2021/05/18 03:53:00.011,n,181,3.24,1.08,4.32,11.7,64.800004,1025.42,0,0,0,0,0.041809
2021/05/18 03:54:00.008,n,322,2.16,1.08,2.88,11.7,64.9,1025.42,0,0,0,0,0.034866
2021/05/18 03:55:00.000,n,149,2.52,1.44,3.96,11.7,64.800004,1025.42,0,0,0,0,0.0383
2021/05/18 03:56:00.002,n,142,5.4,4.32,6.84,11.7,64.5,1025.42,0,0,0,0,0.03746
2021/05/18 03:57:00.000,n,177,2.88,1.44,4.68,11.7,64.699996,1025.42,0,0,0,0,0.0383
2021/05/18 03:58:00.000,n,167,3.24,2.52,4.32,11.8,64.699996,1025.42,0,0,0,0,0.036583
2021/05/18 03:59:00.000,n,268,1.08,0.72,1.08,11.8,64.699996,1025.42,0,0,0,0,0.0383
2021/05/18 04:00:00.007,n,157,2.52,2.16,2.52,11.8,64.5,1025.42,0,0,0,0,0.040092
2021/05/18 04:01:00.004,n,247,2.52,1.44,3.96,11.8,64.699996,1025.42,0,0,0,0,0.040092
2021/05/18 04:02:00.001,n,190,2.88,2.16,3.6,11.8,64.6,1025.42,0,0,0,0,0.039215
2021/05/18 04:03:00.015,n,246,2.16,1.08,2.88,11.8,64.699996,1025.32,0,0,0,0,0.040092
2021/05/18 04:04:00.000,n,155,2.16,1.44,3.6,11.8,64.6,1025.32,0,0,0,0,0.040932
2021/05/18 04:05:00.000,n,289,0.72,0.36,0.72,11.8,64.4,1025.32,0,0,0,0,0.039215
2021/05/18 04:06:00.000,n,162,4.32,3.96,4.68,11.8,64.4,1025.32,0,0,0,0,0.042686
2021/05/18 04:07:00.005,n,223,0.72,0.36,1.44,11.8,64.199996,1025.32,0,0,0,0,0.042686
2021/05/18 04:08:00.004,n,165,4.68,0.72,7.56,11.8,64.199996,1025.32,0,0,0,0,0.040932
2021/05/18 04:09:00.000,n,165,2.52,1.44,5.4,11.8,64.5,1025.32,0,0,0,0,0.044441
2021/05/18 04:10:00.000,n,151,5.76,3.96,7.56,11.9,64.300004,1025.32,0,0,0,0,0.044441
2021/05/18 04:11:00.011,n,202,3.96,3.24,5.04,11.9,64.4,1025.32,0,0,0,0,0.044441
2021/05/18 04:12:00.009,n,201,2.52,2.16,3.24,11.9,64.5,1025.32,0,0,0,0,0.046158
2021/05/18 04:13:00.000,n,172,5.04,4.32,5.4,11.9,64.4,1025.32,0,0,0,0,0.04528
2021/05/18 04:14:00.003,n,180,3.6,2.52,4.68,11.9,64.199996,1025.32,0,0,0,0,0.040932
2021/05/18 04:15:00.000,n,168,7.2,6.84,7.56,11.9,64.4,1025.32,0,0,0,0,0.04528
2021/05/18 04:16:00.000,n,155,2.16,1.44,3.24,11.9,64.300004,1025.32,0,0,0,0,0.049629
2021/05/18 04:17:00.000,n,170,4.68,4.32,6.12,11.9,64.5,1025.32,0,0,0,0,0.047913
2021/05/18 04:18:00.009,n,176,6.12,4.32,7.2,11.9,64.5,1025.32,0,0,0,0,0.04879
2021/05/18 04:19:00.005,n,288,6.48,3.96,7.92,11.8,64.4,1025.32,0,0,0,0,0.04879
2021/05/18 04:20:00.002,n,63,0.72,0.36,1.8,11.8,64.9,1025.32,0,0,0,0,0.044441
2021/05/18 04:21:00.016,n,138,0.36,0.36,0.36,11.8,64.6,1025.32,0,0,0,0,0.044441
2021/05/18 04:22:00.000,n,311,1.44,0.72,2.16,11.8,64.800004,1025.32,0,0,0,0,0.047913
2021/05/18 04:23:00.000,n,176,3.24,2.52,4.32,11.8,64.699996,1025.32,0,0,0,0,0.027885
2021/05/18 04:24:00.000,n,265,0.72,0.36,1.44,11.8,64.699996,1025.32,0,0,0,0,0.031357
2021/05/18 04:25:00.005,n,286,3.6,2.52,3.96,11.8,64.800004,1025.32,0,0,0,0,0.025291
2021/05/18 04:26:00.003,n,196,0.72,0.36,0.72,11.8,64.9,1025.32,0,0,0,0,0.031357
2021/05/18 04:27:00.000,n,256,2.16,1.44,2.52,11.8,65,1025.32,0,0,0,0,0.02964
2021/05/18 04:28:00.012,n,186,5.04,2.52,7.2,11.7,65,1025.32,0,0,0,0,0.028763
2021/05/18 04:29:00.009,n,181,5.76,3.6,6.84,11.7,65,1025.32,0,0,0,0,0.033989
2021/05/18 04:30:00.006,n,196,2.52,1.44,4.68,11.7,65.1,1025.32,0,0,0,0,0.032272
2021/05/18 04:31:00.000,n,165,6.48,5.4,7.2,11.7,65,1025.32,0,0,0,0,0.032272
2021/05/18 04:32:00.000,n,144,2.16,0.72,3.6,11.8,65.300004,1025.42,0,0,0,0,0.027885
2021/05/18 04:33:00.000,n,323,3.6,2.88,3.96,11.8,65.1,1025.42,0,0,0,0,0.026131
2021/05/18 04:34:00.000,n,202,0.36,0.36,0.72,11.8,65.199996,1025.42,0,0,0,0,0.033989
2021/05/18 04:35:00.008,n,173,3.96,3.6,4.32,11.8,65.300004,1025.42,0,0,0,0,0.032272
2021/05/18 04:36:00.005,n,251,3.6,2.52,4.32,11.8,65.300004,1025.42,0,0,0,0,0.032272
2021/05/18 04:37:00.003,n,255,1.08,1.08,1.44,11.8,65.6,1025.42,0,0,0,0,0.032272
2021/05/18 04:38:00.000,n,216,1.8,1.44,2.52,11.7,65.5,1025.42,0,0,0,0,0.031357
2021/05/18 04:39:00.013,n,246,1.8,1.44,2.52,11.7,65.5,1025.42,0,0,0,0,0.031357
2021/05/18 04:40:00.000,n,177,2.52,1.8,3.24,11.7,65.4,1025.42,0,0,0,0,0.033112
2021/05/18 04:41:00.000,n,318,0.72,0.36,1.08,11.7,65.6,1025.42,0,0,0,0,0.032272
2021/05/18 04:42:00.000,n,165,3.24,1.8,3.96,11.7,65.699996,1025.42,0,0,0,0,0.035706
2021/05/18 04:43:00.002,n,218,1.08,0.36,1.44,11.7,65.699996,1025.42,0,0,0,0,0.032272
2021/05/18 04:44:00.000,n,216,3.96,2.52,4.68,11.7,66,1025.42,0,0,0,0,0.031357
2021/05/18 04:45:00.000,n,160,5.76,2.88,7.2,11.7,65.6,1025.42,0,0,0,0,0.027008
2021/05/18 04:46:00.011,n,100,0.72,0,1.08,11.7,65.699996,1025.42,0,0,0,0,0.026131
2021/05/18 04:47:00.008,n,270,2.16,1.8,2.88,11.7,65.699996,1025.42,0,0,0,0,0.027885
2021/05/18 04:48:00.005,n,173,4.32,2.88,5.4,11.7,65.699996,1025.42,0,0,0,0,0.033989
2021/05/18 04:49:00.000,n,124,1.8,0.72,2.52,11.7,65.699996,1025.42,0,0,0,0,0.025291
2021/05/18 04:50:00.000,n,263,3.6,2.52,4.32,11.7,65.9,1025.42,0,0,0,0,0.02964
2021/05/18 04:51:00.000,n,125,2.52,1.8,3.6,11.7,65.800004,1025.42,0,0,0,0,0.033112